Wind_Speed
36 36 33 31 30 27 27 30 34 37 40 40 39 39 38 42 40 38 39 38 38 39 39 39 37 36 36 35 37 36 35 36 37 39 43 38 38 41 38 42 40 45 48 52 52
38 38 36 33 32 30 30 31 34 37 40 40 39 39 38 40 40 40 39 40 39 37 38 39 38 37 39 40 39 39 38 40 41 44 42 45 43 38 39 42 41 49 48 45 44
39 39 38 36 34 33 32 32 33 37 40 39 39 39 39 40 40 42 41 42 42 42 40 42 41 39 42 42 41 41 41 41 40 44 44 43 41 38 37 40 43 42 35 31 32
40 40 39 38 35 34 32 33 34 35 40 40 40 40 40 41 41 42 44 44 43 42 42 43 44 41 41 42 43 45 46 43 40 41 39 41 38 36 36 35 27 23 17 20 19
42 41 41 39 38 37 35 36 36 36 38 41 41 41 42 42 42 42 43 43 45 44 44 43 44 44 43 44 46 48 47 42 38 39 37 36 36 28 15 19 8 7 17 13 29
46 45 44 43 42 40 38 38 37 38 39 42 43 43 44 42 41 42 43 43 43 44 45 44 44 43 45 47 47 47 45 39 39 37 33 37 32 22 18 1 4 9 22 29 38
51 50 49 48 46 44 43 40 41 41 41 42 43 44 44 42 41 41 42 41 43 45 45 44 44 44 45 47 48 48 40 38 37 37 32 33 22 11 12 5 15 19 11 14 25
57 56 54 52 49 46 44 43 43 42 43 43 43 46 44 44 46 46 46 43 43 45 45 45 44 45 47 47 48 45 41 38 36 26 22 26 21 8 4 3 7 10 9 12 8
61 57 53 51 48 47 46 46 45 42 43 46 46 46 45 46 46 46 45 43 43 45 45 43 42 44 46 47 48 43 40 38 28 24 24 22 23 16 7 14 1 9 1 8 8
56 52 47 47 47 49 47 45 44 43 41 43 46 47 47 46 48 44 43 42 43 44 43 40 40 43 42 44 43 36 35 33 26 27 22 23 21 30 10 19 9 22 15 10 8
37 38 38 42 42 46 43 43 41 39 36 35 40 44 47 50 48 48 45 44 44 46 43 41 38 38 32 36 37 32 27 26 25 25 33 36 33 32 27 22 20 29 18 2 11
31 34 35 36 36 39 38 39 38 37 35 34 36 36 45 46 49 48 47 47 49 48 40 38 35 32 31 32 31 31 32 30 27 26 32 37 37 34 32 27 28 34 28 17 6
33 32 30 33 34 33 32 35 35 37 35 36 36 36 37 40 46 46 49 47 44 39 38 36 32 35 38 35 34 36 33 30 28 29 29 32 37 25 31 38 34 40 38 32 17
28 30 28 29 31 30 33 35 36 35 36 42 37 40 36 38 42 43 44 45 53 49 41 38 38 39 40 42 38 38 34 39 38 34 32 22 20 21 30 38 36 43 42 39 25
24 28 30 28 29 31 37 37 36 38 37 44 40 40 42 42 47 42 44 43 47 49 50 53 49 45 39 41 37 37 31 35 37 35 32 11 13 18 15 21 24 21 20 36 22
25 28 30 31 31 30 35 34 36 38 41 42 44 44 43 44 43 41 41 43 43 43 42 53 51 38 38 36 40 36 34 29 31 28 22 16 11 12 9 8 19 14 12 31 34
25 27 28 26 27 29 32 30 33 35 44 45 49 48 42 43 40 37 38 41 42 38 40 47 43 38 37 39 35 32 32 34 32 22 18 14 10 12 6 8 10 9 9 15 27
27 27 27 23 23 22 20 23 24 32 37 32 36 40 40 42 40 36 36 39 42 37 38 39 46 47 41 35 30 33 37 32 27 19 17 11 14 15 12 11 7 3 9 7 16
35 34 31 27 24 21 20 20 28 33 24 19 24 36 44 43 42 36 35 39 40 37 37 37 40 38 35 34 33 36 32 27 23 18 19 13 18 25 21 20 21 19 17 6 9
41 40 36 34 30 27 25 27 31 26 17 16 23 29 40 44 37 33 34 37 39 38 38 40 40 36 35 36 34 29 27 22 25 19 19 17 20 29 28 22 24 20 8 11 12
48 44 42 40 38 34 33 36 31 22 17 18 21 22 32 41 36 31 32 34 36 36 36 37 36 37 34 34 34 26 26 22 24 23 19 12 20 35 36 30 31 20 29 36 31
55 51 48 46 44 43 42 42 36 25 20 22 21 22 28 38 37 28 34 37 38 35 33 34 33 34 35 33 31 25 27 24 24 17 15 19 27 33 44 32 24 19 25 28 28
61 57 55 52 49 46 46 46 41 32 23 24 25 22 25 27 25 25 35 38 29 25 24 29 26 33 28 26 31 29 29 24 22 14 18 21 29 34 36 29 26 22 20 20 27
66 63 59 58 56 50 47 47 45 41 32 31 27 23 23 23 24 27 35 30 22 19 18 22 24 27 28 31 33 29 28 23 17 14 16 28 29 27 24 19 18 12 10 5 25
71 69 67 64 65 58 56 56 56 53 46 39 33 28 27 26 28 30 32 26 19 19 18 17 20 23 26 29 27 30 28 23 20 19 21 30 30 30 27 25 22 19 5 7 15
77 73 71 68 67 65 64 63 58 54 48 43 38 36 31 30 29 32 35 26 20 22 18 16 21 28 26 28 29 30 30 25 24 23 22 29 31 28 29 19 22 25 14 8 11
82 79 75 71 72 71 66 62 60 59 53 49 45 41 37 33 33 34 34 26 26 28 24 22 25 28 28 30 29 29 25 26 24 25 28 25 29 29 26 21 23 18 19 14 11
Wind_Direction
228 232 233 238 238 243 243 238 236 232 231 231 233 230 226 229 233 233 236 239 241 243 248 251 253 256 259 262 269 273 277 281 285 288 295 293 287 292 306 303 301 304 305 308 305
226 231 235 237 239 242 242 239 238 233 230 230 229 230 227 228 229 229 235 238 242 243 247 253 254 257 259 264 269 274 277 280 283 287 292 297 298 310 312 305 303 303 311 311 310
227 231 235 237 240 241 240 237 236 234 230 228 226 228 228 228 225 230 233 237 241 246 249 253 258 261 265 270 272 274 277 280 284 287 296 297 304 309 308 301 305 311 314 319 346
229 230 234 236 240 240 239 239 237 234 231 227 226 225 228 228 226 229 234 236 241 246 249 254 258 263 266 269 272 275 279 282 284 287 293 298 303 303 306 304 313 311 350 9 360
229 231 233 237 239 240 240 238 237 233 229 229 227 225 227 227 230 232 235 237 242 247 250 253 261 264 265 267 271 273 276 279 280 282 289 291 292 301 304 319 321 352 2 1 360
233 234 237 239 240 239 241 240 236 235 230 229 228 227 229 228 231 235 236 239 243 248 252 256 259 263 265 267 269 271 274 283 288 289 293 290 295 282 290 100 329 324 322 335 341
236 237 238 240 241 240 241 240 238 235 233 232 228 227 230 230 232 234 237 240 245 249 250 253 257 261 264 267 269 272 278 281 282 286 291 287 291 255 300 324 331 326 265 299 317
237 237 238 239 239 239 238 238 237 234 234 231 231 227 230 231 233 236 240 243 247 248 249 252 257 260 264 267 270 274 278 278 282 289 274 271 272 256 279 241 6 334 229 229 271
237 237 237 238 236 234 233 233 234 232 233 233 229 227 229 234 234 239 242 244 247 248 251 256 259 260 262 265 269 275 276 280 279 261 261 284 299 292 213 217 287 292 313 221 240
238 236 233 230 228 228 227 229 230 230 234 234 233 230 229 230 238 237 243 246 248 250 253 255 260 259 262 267 269 272 275 273 276 255 268 291 283 287 224 186 250 281 268 252 216
213 216 215 226 226 222 222 225 228 228 229 231 235 234 236 234 235 239 235 237 240 244 250 256 255 257 259 265 271 273 268 268 269 253 266 268 257 268 274 222 249 282 258 150 117
214 218 221 223 221 216 219 225 226 228 229 229 232 232 235 237 237 237 240 240 244 251 251 251 249 257 257 258 269 274 267 267 261 253 258 262 265 264 264 265 256 274 257 214 137
208 213 216 217 215 216 220 226 223 226 230 231 235 237 237 238 241 240 239 239 240 250 250 251 240 245 247 251 266 270 265 262 259 262 266 262 269 265 259 262 255 263 249 223 220
214 209 214 217 220 220 226 229 227 231 236 236 236 244 241 243 244 238 242 239 236 235 243 245 245 248 253 255 259 266 268 262 261 269 273 266 265 256 237 244 243 240 236 222 222
214 214 220 224 223 223 232 234 231 233 234 241 235 245 244 238 242 242 242 241 240 240 235 245 251 253 258 252 250 260 265 267 264 270 275 236 240 259 251 229 219 229 224 194 226
224 226 228 229 231 235 239 234 236 240 241 242 244 243 244 241 241 243 241 240 240 244 238 241 248 249 248 253 252 247 256 266 262 264 261 248 221 249 254 217 223 228 192 212 221
225 228 232 229 233 234 237 236 236 241 241 237 239 242 240 241 241 241 236 240 241 236 239 238 243 249 251 254 241 249 253 265 261 256 235 233 195 216 200 182 247 253 242 214 236
226 221 220 214 221 222 222 224 232 238 238 236 238 241 240 235 239 238 234 233 239 237 239 238 241 244 247 248 241 250 259 257 251 229 232 208 162 179 155 165 213 136 245 305 269
229 226 224 219 216 213 214 221 230 236 242 231 233 234 238 235 234 234 234 237 237 239 238 236 240 242 242 244 243 252 253 246 230 226 219 161 155 149 150 166 170 129 78 77 255
234 234 232 229 224 217 217 226 232 236 240 225 235 233 229 239 236 229 230 240 242 240 238 239 240 240 237 239 244 242 239 223 223 208 209 152 162 171 194 189 187 142 82 257 276
233 234 234 233 233 230 227 233 237 239 232 228 228 230 225 234 230 220 222 226 237 238 241 242 240 242 237 234 240 230 222 221 212 204 213 201 189 179 194 207 207 196 167 218 233
233 232 234 234 233 234 236 237 242 241 228 228 228 231 228 227 240 229 225 225 236 239 236 241 238 246 234 232 230 220 215 216 200 197 199 209 206 190 191 204 208 208 204 222 241
236 234 235 234 233 234 237 240 244 244 238 230 234 228 232 238 232 223 218 225 235 240 230 236 228 235 230 224 215 213 208 195 195 194 212 206 214 208 202 172 187 207 223 219 246
234 236 236 237 234 234 236 241 244 245 239 236 236 234 235 228 222 219 221 228 227 231 231 228 226 221 218 210 203 203 199 192 178 191 174 188 201 201 197 190 186 206 141 234 227
235 235 233 234 235 230 231 234 236 238 238 236 236 231 226 229 221 223 229 228 222 228 225 224 217 211 209 196 199 193 195 191 185 169 170 185 186 188 197 210 221 197 112 127 178
235 236 233 232 234 234 233 233 236 237 236 235 233 234 233 230 223 229 231 220 218 229 224 208 204 202 204 186 192 194 195 195 178 161 163 189 196 204 213 199 210 227 222 221 218
236 235 234 233 233 233 234 233 234 238 237 235 233 236 236 230 230 230 229 212 213 220 219 205 197 192 188 180 189 199 197 186 184 174 169 186 206 213 212 207 215 225 215 220 221
Height
10870 10875 10879 10883 10887 10891 10895 10899 10902 10907 10912 10917 10921 10927 10932 10936 10940 10944 10945 10946 10949 10952 10953 10956 10960 10961 10962 10959 10960 10962 10963 10961 10960 10958 10958 10969 10966 10962 10959 10955 10957 10955 10953 10949 10941
10863 10868 10872 10875 10879 10884 10888 10892 10895 10900 10905 10911 10915 10920 10925 10929 10934 10937 10940 10942 10944 10947 10949 10950 10954 10954 10954 10954 10955 10956 10955 10955 10955 10953 10957 10951 10954 10957 10953 10947 10948 10946 10944 10941 10936
10856 10861 10865 10868 10872 10876 10881 10885 10888 10893 10898 10904 10909 10913 10918 10922 10927 10931 10934 10936 10939 10942 10944 10944 10947 10948 10947 10948 10948 10948 10948 10949 10949 10944 10947 10946 10949 10950 10949 10940 10940 10940 10940 10939 10938
10848 10853 10857 10861 10865 10868 10872 10877 10881 10886 10891 10897 10903 10907 10910 10915 10920 10924 10927 10930 10933 10936 10938 10939 10940 10942 10942 10942 10940 10941 10939 10941 10944 10942 10945 10943 10942 10944 10942 10939 10937 10932 10928 10927 10927
10840 10845 10849 10853 10857 10861 10864 10869 10874 10879 10884 10890 10896 10900 10903 10908 10913 10916 10921 10924 10926 10929 10931 10933 10934 10935 10936 10935 10933 10934 10934 10938 10939 10939 10941 10940 10937 10936 10937 10933 10928 10925 10921 10918 10918
10831 10835 10840 10844 10848 10852 10857 10862 10867 10871 10877 10883 10888 10893 10896 10903 10905 10910 10914 10917 10919 10922 10924 10926 10927 10927 10928 10928 10927 10927 10928 10933 10931 10932 10933 10928 10934 10929 10930 10926 10920 10915 10913 10915 10913
10820 10825 10829 10834 10839 10844 10849 10854 10859 10864 10869 10875 10880 10885 10889 10895 10899 10903 10906 10909 10912 10914 10917 10920 10920 10920 10919 10918 10918 10917 10927 10927 10923 10926 10928 10921 10922 10925 10927 10918 10914 10909 10911 10912 10920
10807 10813 10819 10824 10830 10835 10841 10846 10851 10857 10862 10867 10872 10878 10883 10888 10891 10896 10898 10902 10904 10907 10910 10913 10914 10912 10911 10910 10908 10913 10920 10919 10918 10920 10918 10916 10917 10924 10923 10914 10909 10911 10909 10908 10912
10794 10801 10808 10814 10820 10826 10832 10838 10843 10849 10854 10859 10864 10869 10875 10879 10884 10886 10890 10895 10897 10899 10902 10905 10906 10904 10902 10901 10903 10908 10910 10912 10912 10912 10910 10909 10908 10920 10920 10913 10907 10909 10912 10909 10913
10782 10790 10797 10803 10810 10816 10824 10829 10835 10841 10847 10851 10856 10861 10866 10870 10872 10881 10883 10886 10889 10891 10894 10898 10897 10894 10897 10892 10897 10903 10904 10905 10905 10905 10902 10903 10905 10904 10915 10910 10902 10900 10911 10912 10911
10776 10781 10789 10795 10800 10808 10817 10822 10827 10834 10840 10845 10847 10853 10857 10862 10866 10869 10875 10878 10880 10882 10887 10890 10887 10888 10892 10888 10889 10895 10897 10898 10898 10901 10898 10895 10900 10899 10906 10905 10894 10897 10908 10911 10911
10772 10777 10783 10788 10795 10802 10811 10816 10823 10828 10833 10838 10840 10845 10848 10853 10856 10861 10865 10869 10872 10874 10880 10881 10882 10884 10884 10884 10884 10886 10888 10890 10892 10896 10893 10891 10887 10897 10899 10899 10893 10887 10896 10907 10902
10766 10772 10777 10783 10790 10800 10806 10809 10815 10820 10826 10829 10833 10836 10840 10844 10846 10851 10855 10860 10863 10866 10870 10872 10877 10877 10878 10879 10880 10878 10880 10883 10885 10887 10887 10886 10881 10889 10894 10891 10890 10886 10893 10904 10903
10762 10768 10773 10779 10787 10794 10799 10802 10810 10815 10818 10818 10825 10826 10833 10834 10836 10841 10844 10850 10854 10856 10862 10864 10868 10870 10872 10872 10876 10871 10873 10873 10875 10878 10879 10882 10878 10871 10885 10881 10881 10882 10890 10902 10904
10759 10764 10769 10775 10782 10789 10790 10796 10802 10804 10810 10808 10817 10816 10821 10824 10821 10832 10835 10840 10841 10844 10856 10853 10858 10862 10865 10864 10869 10865 10866 10863 10867 10870 10871 10874 10872 10865 10869 10875 10875 10881 10888 10895 10899
10755 10760 10764 10769 10775 10781 10782 10790 10794 10797 10799 10802 10803 10806 10810 10811 10816 10822 10826 10829 10832 10837 10844 10843 10846 10855 10855 10858 10859 10860 10860 10860 10861 10864 10865 10867 10868 10866 10867 10869 10873 10877 10886 10890 10894
10749 10753 10757 10763 10768 10772 10775 10781 10785 10786 10783 10790 10790 10794 10802 10804 10808 10814 10817 10818 10821 10829 10832 10832 10841 10846 10848 10848 10850 10853 10854 10855 10857 10859 10861 10863 10867 10866 10869 10871 10872 10878 10875 10885 10893
10745 10748 10751 10757 10762 10766 10770 10773 10776 10772 10772 10783 10788 10790 10793 10797 10800 10805 10809 10810 10813 10820 10823 10827 10831 10834 10837 10841 10846 10847 10848 10849 10851 10854 10855 10860 10865 10868 10872 10873 10871 10876 10884 10888 10895
10737 10741 10745 10752 10756 10760 10764 10766 10765 10764 10771 10779 10779 10780 10781 10785 10790 10798 10802 10803 10806 10812 10816 10820 10821 10828 10833 10833 10839 10841 10841 10844 10848 10849 10852 10858 10864 10870 10871 10866 10864 10870 10880 10884 10888
10727 10732 10740 10745 10750 10755 10757 10758 10756 10761 10766 10771 10771 10772 10773 10775 10784 10793 10797 10797 10800 10805 10809 10811 10814 10820 10824 10827 10830 10833 10837 10840 10842 10846 10849 10856 10861 10866 10863 10858 10856 10865 10874 10890 10888
10717 10724 10730 10737 10743 10747 10749 10748 10751 10756 10761 10763 10764 10765 10768 10770 10776 10785 10789 10790 10791 10795 10800 10804 10809 10812 10818 10821 10822 10827 10831 10835 10839 10843 10847 10852 10854 10860 10857 10848 10847 10847 10855 10861 10872
10704 10713 10719 10725 10732 10737 10741 10741 10744 10750 10755 10756 10758 10760 10761 10763 10770 10779 10780 10781 10784 10789 10795 10796 10802 10802 10809 10813 10818 10822 10825 10829 10835 10839 10844 10844 10844 10851 10852 10847 10850 10853 10856 10862 10867
10691 10700 10706 10713 10720 10728 10732 10735 10739 10743 10749 10751 10753 10755 10758 10763 10767 10772 10775 10776 10781 10784 10787 10789 10795 10797 10802 10807 10811 10815 10819 10827 10833 10837 10837 10838 10837 10841 10848 10857 10859 10860 10864 10871 10868
10676 10686 10696 10700 10706 10717 10724 10728 10732 10734 10741 10744 10748 10753 10755 10759 10763 10767 10768 10773 10777 10781 10783 10785 10788 10791 10794 10799 10804 10810 10817 10824 10830 10832 10832 10831 10832 10837 10845 10852 10851 10854 10859 10860 10859
10658 10667 10675 10682 10687 10700 10708 10710 10714 10719 10728 10737 10743 10746 10749 10754 10759 10761 10764 10770 10775 10778 10779 10782 10784 10788 10792 10797 10802 10806 10813 10821 10827 10829 10829 10828 10832 10835 10840 10842 10843 10850 10852 10850 10853
10639 10649 10661 10670 10676 10684 10689 10696 10708 10715 10723 10730 10737 10739 10745 10749 10754 10756 10760 10766 10772 10775 10776 10779 10781 10785 10789 10795 10799 10804 10811 10817 10822 10825 10829 10827 10829 10831 10835 10841 10844 10845 10847 10851 10853
10620 10631 10641 10653 10658 10665 10678 10690 10699 10704 10714 10719 10728 10735 10740 10744 10749 10751 10755 10763 10766 10768 10772 10775 10778 10782 10787 10790 10796 10802 10808 10814 10819 10823 10826 10826 10826 10828 10834 10839 10841 10842 10845 10849 10849